SCP
-0 -0 -0 -0 -0 -0 -0 -0 -0 -0 -0 -0 -0 0 0 0 0 0 0 0 0 -0 -0 0 0 0 0 0 0 0 0 0 0 0 0 0 0 0 0 0 0 0 0 0 0
-0 -0 -0 -0 -0 -0 -0 -0 -0 -0 -0 -0 0 0 0 0 0 0 0 -0 -0 -0 0 0 0 0 0 0 0 0 0 0 0 0 0 0 0 0 0 0 0 0 0 0 0
-0 -0 -0 -0 -0 -0 -0 -0 -0 -0 0 0 0 0 0 0 0 0 -0 -0 -0 0 0 0 0 0 0 0 0 0 0 0 0 0 0 0 0 0 0 0 0 0 0 0 0
-0 -0 -0 -0 -0 -0 -0 -0 -0 0 0 0 0 0 0 0 0 0 -0 -0 0 0 0 0 0 0 0 0 0 0 0 0 0 0 0 0 0 0 0 0 0 0 0 0 0
0 0 -0 -0 -0 -0 -0 -0 0 -0 -0 0 0 0 0 0 0 0 0 0 0 0 0 0 0 0 0 0 0 0 0 0 0 0 0 0 0 0 0 0 0 0 0 0 0
0 0 0 -0 -0 -0 -0 -0 -0 -0 -0 -0 -0 0 0 0 -0 0 0 0 0 0 0 0 0 0 0 0 0 0 0 0 0 0 0 0 0 0 0 0 0 0 0 0 0
0 0 0 0 -0 0 0 0 -0 -0 -0 -0 -0 -0 0 0 -0 0 0 -0 -0 0 0 0 0 0 0 0 0 0 0 0 0 0 0 0 0 0 0 0 0 0 0 0 0
0 0 0 0 0 0 0 0 -0 -0 -0 -0 -0 0 0 -0 0 0 0 -0 0 0 0 0 0 0 0 0 0 0 0 0 0 0 0 0 0 0 0 0 0 0 0 0 0
0 0 0 0 -0 -0 -0 0 0 -0 -0 -0 0 0 0 0 0 0 0 0 -0 0 0 0 0 0 0 0 0 0 0 0 0 0 0 0 0 0 0 0 0 0 0 0 0
0 0 0 0 0 -0 0 0 0 0 0 0 0 0 0 0 0 0 0 0 0 0 0 0 0 0 0 0 0 0 0 0 0 0 0 0 0 0 0 0 0 0 0 0 0
0 0 0 0 0 0 0 -0 0 0 0 0 0 0 0 0 0 0 0 0 0 0 0 0 0 0 0 0 0 0 0 0 0 0 0 0 0 0 0 0 0 0 0 0 0
0 0 0 0 0 0 -0 0 0 0 0 0 0 0 0 0 0 0 0 0 0 0 0 0 0 0 0 0 0 0 0 0 0 0 0 0 0 0 0 0 0 0 0 0 0
0 0 0 0 0 0 -0 -0 -0 0 0 0 0 0 0 0 0 0 0 0 0 0 0 0 0 0 0 0 0 0 0 0 0 0 0 0 0 0 0 0 0 0 0 0 0
0 0 0 0 0 -0 0 -0 0 0 0 0 0 0 0 0 0 0 0 0 0 0 0 0 0 0 0 0 0 0 0 0 0 0 0 0 0 0 0 0 0 0 0 0 0
0 0 0 0 0 0 0 0 0 0 0 0 0 0 0 0 0 0 0 0 0 0 0 0 0 0 0 0 0 0 0 0 0 0 0 0 0 0 0 0 0 0 0 0 0
0 0 0 0 0 0 0 0 0 0 0 0 0 0 0 0 0 0 0 0 0 0 0 0 0 0 0 0 0 0 0 0 0 0 0 0 0 0 0 0 0 0 0 0 0
0 0 0 0 0 0 0 0 0 0 0 0 0 0 0 0 0 0 0 0 0 0 0 0 0 0 0 0 0 0 0 0 0 0 0 0 0 0 0 0 0 0 0 0 0
0 0 0 0 0 0 0 0 0 0 0 0 0 0 0 0 0 0 0 0 0 0 0 0 0 0 0 0 0 0 0 0 0 0 0 0 0 0 0 0 0 0 0 0 0
0 0 0 0 0 0 0 0 0 0 0 0 0 0 0 0 0 0 0 0 0 0 0 0 0 0 0 0 0 0 0 0 0 0 0 0 0 0 0 0 0 0 0 0 0
0 0 0 0 0 0 0 0 0 0 0 0 0 0 0 0 0 0 0 0 0 0 0 0 0 0 0 0 0 0 0 0 0 0 0 0 0 0 0 0 0 0 0 0 0
0 0 0 0 0 0 0 0 0 0 0 0 0 0 0 0 0 0 0 0 0 0 0 0 0 0 0 0 0 0 0 0 0 0 0 0 0 0 0 0 0 0 0 0 0
0 0 0 0 0 0 0 0 0 0 0 0 0 0 0 0 0 0 0 0 0 0 0 0 0 0 0 0 0 0 0 0 0 0 0 0 0 0 0 0 0 0 0 0 0
0 0 0 0 0 0 0 0 0 0 0 0 0 0 0 0 0 0 0 0 0 0 0 0 0 0 0 0 0 0 0 0 0 0 0 0 0 0 0 0 0 0 0 0 0
0 0 0 0 0 0 0 0 0 0 0 0 0 0 0 0 0 0 0 0 0 0 0 0 0 0 0 0 0 0 0 0 0 0 0 0 0 -0 0 0 0 0 0 0 0
0 0 0 0 0 0 0 0 0 0 0 0 0 0 0 0 0 0 0 0 0 0 0 0 0 0 0 0 0 0 0 0 0 0 0 0 0 0 0 0 0 0 0 0 0
0 0 0 0 0 0 0 0 0 0 0 0 0 0 0 0 0 0 0 0 0 0 0 0 0 0 0 0 0 0 0 0 0 0 0 0 0 -0 0 0 0 0 0 0 0
0 0 0 0 0 0 0 0 0 0 0 0 0 0 0 0 0 0 0 0 0 0 0 0 0 0 0 0 0 0 0 0 0 0 0 0 -0 0 0 0 0 0 0 0 0
Wind_Speed_500mb
35 39 39 37 33 29 28 25 23 20 16 11 6 5 3 4 29 11 13 20 24 22 14 7 6 13 15 12 9 5 8 4 6 10 5 7 9 3 6 12 9 5 1 2 10
38 39 41 41 36 29 29 25 24 23 18 13 12 9 5 1 8 32 25 20 18 18 9 5 11 10 11 8 8 9 7 8 2 5 5 4 2 8 4 6 10 11 17 13 13
37 39 40 43 44 33 27 26 21 23 18 12 12 11 12 3 4 24 25 20 16 15 7 7 10 10 11 10 10 4 6 7 4 4 1 4 6 5 3 6 13 12 27 19 23
33 35 37 40 43 41 31 27 19 20 15 9 9 9 9 6 2 20 22 19 17 15 4 4 5 7 9 7 4 8 5 4 5 3 3 5 7 8 17 13 24 23 19 20 23
31 32 34 37 37 39 35 30 18 17 17 11 12 10 5 9 12 19 23 20 16 13 8 12 14 9 9 6 4 6 4 7 4 14 12 10 11 10 30 13 11 11 13 17 22
27 30 34 36 35 38 38 34 16 19 20 9 6 10 4 7 11 21 22 16 15 19 26 16 14 20 15 7 7 4 5 12 4 4 6 6 8 8 10 5 12 22 22 19 28
25 27 31 34 37 37 39 32 18 19 21 11 6 6 14 9 9 19 18 15 16 16 23 26 17 5 9 6 7 5 7 8 5 5 4 9 12 14 14 7 24 36 32 26 30
23 24 28 32 36 33 38 37 25 14 22 10 5 1 6 9 13 18 13 14 13 11 14 16 14 16 10 9 10 10 8 8 4 7 5 11 17 14 16 21 47 40 40 37 28
26 25 30 32 35 31 37 40 25 11 22 9 4 0 2 7 11 17 15 9 9 9 12 11 8 9 8 8 8 14 2 3 16 5 5 4 18 34 37 41 52 54 41 32 26
23 28 31 31 32 35 40 38 24 5 22 5 5 2 4 9 8 12 15 8 5 5 5 6 9 7 8 9 5 5 5 5 10 5 8 13 37 36 41 34 47 50 43 33 29
24 25 29 35 31 37 39 30 20 5 28 7 8 3 6 13 5 8 19 6 4 7 7 10 10 4 7 6 7 7 4 8 10 9 9 13 27 45 52 34 36 33 33 32 27
23 23 27 35 36 37 31 19 16 15 14 6 5 4 6 13 6 11 17 7 8 4 7 12 2 5 7 5 5 6 4 11 12 4 7 13 41 44 23 17 13 24 30 26 22
28 28 29 36 37 23 29 25 26 23 6 5 3 3 3 8 5 14 14 7 9 7 7 8 2 7 4 2 3 6 8 5 8 12 6 17 17 11 4 5 12 21 25 22 20
29 35 28 38 24 27 23 28 27 24 8 4 3 4 4 7 4 7 9 5 7 5 5 5 4 4 4 4 7 4 5 2 6 9 4 11 10 12 8 11 10 28 28 23 26
28 28 40 35 21 21 20 24 26 10 8 4 4 4 8 4 7 4 8 4 5 3 10 9 4 5 3 6 7 6 5 1 5 7 7 8 5 16 6 13 17 28 36 27 29
24 27 25 22 16 12 14 21 17 11 11 6 4 5 8 8 7 8 4 5 5 6 2 8 4 3 4 3 2 4 8 11 7 7 5 7 7 13 8 11 9 10 37 30 34
23 22 16 15 12 11 10 12 9 8 4 9 4 6 3 7 7 10 7 4 4 8 8 9 3 3 2 3 6 11 12 7 11 8 9 5 3 22 17 13 13 18 30 32 34
19 13 11 9 12 11 8 9 7 5 9 4 2 2 1 8 3 8 5 5 1 7 6 6 12 3 2 4 9 4 11 9 10 5 10 7 13 13 11 20 29 32 34 38 38
11 11 12 13 7 6 5 5 14 12 3 6 4 9 9 3 3 8 4 6 7 10 11 7 9 1 6 5 6 5 4 5 12 3 6 5 16 23 6 13 21 38 39 47 41
11 12 20 16 9 6 5 9 6 4 3 2 6 7 5 6 6 8 3 5 5 3 4 6 6 2 5 8 12 9 5 8 6 3 11 10 12 13 14 19 13 20 51 58 45
13 10 11 9 12 9 5 10 7 9 4 5 5 5 8 3 7 5 8 5 5 6 9 8 7 9 4 7 15 4 3 9 7 7 9 7 13 17 20 15 18 24 42 39 47
11 4 6 12 5 4 4 6 4 5 7 8 4 10 10 11 7 6 11 11 12 15 9 6 7 5 17 3 7 8 12 11 8 11 7 4 20 12 16 11 21 45 46 51 59
9 10 15 24 6 8 4 4 6 7 8 7 6 8 6 11 2 10 6 2 18 13 11 12 2 6 15 8 5 6 9 8 5 4 13 8 18 6 9 16 33 40 61 64 61
6 3 10 21 10 7 6 9 9 7 7 8 5 7 6 2 6 6 6 5 13 10 10 14 7 13 13 13 6 6 10 17 14 6 12 31 53 56 49 33 38 45 60 64 48
14 11 8 6 10 12 10 3 11 8 9 11 5 14 12 8 2 10 8 5 8 12 10 7 10 5 10 13 11 28 35 24 29 34 23 50 24 49 43 35 50 69 74 46 31
11 11 12 5 3 15 21 17 25 15 14 9 9 8 16 13 20 17 12 9 10 4 9 6 6 4 9 14 11 21 39 32 41 44 36 47 52 68 78 67 57 51 42 40 34
40 46 16 14 12 10 13 22 19 17 24 28 26 9 14 38 32 20 19 5 10 16 14 11 8 4 10 9 14 19 22 18 9 8 23 30 51 24 26 17 35 45 36 35 31
Wind_Direction_500mb
47 46 40 36 35 38 34 34 33 36 33 37 22 360 305 36 45 43 24 7 7 12 21 65 78 109 116 94 79 104 67 192 181 147 169 350 19 255 292 278 274 257 183 271 286
50 46 42 36 33 31 30 32 29 23 29 38 43 41 18 344 22 34 27 10 10 8 36 91 78 125 79 69 44 75 108 191 109 115 146 293 304 305 346 275 274 249 230 320 291
48 42 39 35 32 28 26 26 30 24 30 45 40 38 23 324 39 12 15 13 12 16 29 85 94 87 77 58 30 81 139 169 167 133 237 233 258 261 261 276 215 229 274 278 291
47 39 31 28 27 25 21 18 22 27 32 32 13 354 8 69 73 5 14 15 13 17 34 81 142 79 71 71 47 111 83 103 161 182 284 250 293 265 225 255 303 285 284 280 256
38 36 30 23 20 20 16 10 18 22 12 19 28 13 33 68 48 19 14 19 25 36 110 99 84 90 102 113 122 70 2 334 303 283 268 265 260 269 267 289 284 253 258 283 257
31 26 22 19 18 16 13 10 17 12 355 352 357 18 41 76 28 23 17 25 45 67 68 85 90 103 102 75 70 23 326 307 293 298 283 286 273 313 226 212 309 285 276 267 253
21 19 16 11 9 10 6 3 355 358 1 360 13 114 66 72 37 22 18 33 56 77 78 73 81 92 104 92 62 29 40 358 13 341 345 334 289 222 211 283 304 299 276 274 281
2 2 4 4 0 1 2 353 350 336 2 13 27 49 99 38 33 22 32 49 62 90 78 76 89 74 62 101 34 42 49 14 317 347 26 64 277 269 258 296 307 294 289 279 259
348 349 348 350 355 355 354 349 341 315 -0 3 6 282 66 11 16 21 31 50 70 90 78 76 76 75 68 69 21 18 222 330 321 1 263 176 272 268 285 300 296 294 281 258 230
332 338 341 343 344 349 349 347 341 312 3 350 32 36 23 343 359 14 6 23 51 108 66 64 57 67 40 64 228 265 0 277 251 292 357 281 270 280 287 296 280 276 269 228 229
309 315 325 329 333 337 346 352 353 322 341 354 318 306 318 343 352 8 4 5 33 69 45 17 68 164 167 144 132 136 214 248 259 284 306 254 278 283 297 290 275 259 225 220 237
296 304 322 329 332 335 345 19 8 319 310 314 301 282 315 351 342 7 356 27 36 71 339 20 136 188 135 135 130 122 133 271 284 309 341 298 292 289 281 265 248 211 200 217 257
290 308 315 320 331 338 350 356 347 345 291 301 300 311 328 353 10 352 14 36 79 60 31 136 56 129 105 57 85 219 179 239 249 329 283 321 295 325 337 271 238 214 214 231 286
301 304 311 320 325 331 337 336 344 344 58 297 7 20 340 343 7 14 20 37 45 160 159 199 326 147 73 258 129 301 174 317 302 40 295 31 284 300 302 290 229 218 224 250 292
314 298 304 310 311 325 326 331 338 347 6 303 343 317 345 23 331 23 11 17 125 155 85 260 168 172 123 234 156 210 18 353 88 93 37 339 60 273 331 281 251 234 235 258 298
285 291 298 311 324 326 322 328 332 40 263 328 315 345 12 22 9 338 6 42 90 113 97 230 298 180 198 44 308 18 56 40 55 88 23 258 117 276 235 217 287 269 236 263 299
295 298 319 336 339 332 327 334 30 137 352 296 332 34 127 317 349 24 355 330 180 45 344 329 262 356 142 76 25 61 49 335 352 7 227 312 322 249 261 251 231 251 254 270 297
290 288 306 329 336 344 347 52 110 243 233 134 271 26 64 13 23 335 300 290 161 96 101 117 328 104 24 147 173 65 142 148 241 277 274 352 238 250 235 282 272 258 261 274 294
281 281 279 303 290 339 2 81 210 203 168 179 60 64 320 337 182 18 232 220 204 171 158 123 285 319 38 79 93 255 56 164 98 89 23 245 288 288 296 288 260 255 261 270 288
236 287 264 265 237 201 94 256 236 239 150 108 177 152 198 274 356 53 301 220 162 128 134 182 348 296 279 92 34 135 155 52 11 324 291 282 278 239 291 274 282 265 259 267 289
232 262 254 233 188 172 206 229 274 245 253 203 239 190 208 183 173 242 248 280 124 122 86 126 100 286 54 195 179 116 12 52 123 158 197 293 255 215 237 238 259 277 285 269 298
256 232 243 175 155 201 223 219 293 259 219 237 252 215 206 157 208 243 238 215 173 153 157 188 134 245 228 154 157 164 185 156 138 253 231 194 269 221 230 249 271 279 289 288 303
231 240 217 187 204 223 230 271 262 218 224 186 235 230 167 175 239 208 236 271 177 166 168 176 309 356 337 17 13 204 196 172 138 113 204 156 264 307 290 301 277 277 299 307 307
239 267 213 205 226 184 196 230 236 246 253 205 224 144 148 233 219 252 252 199 206 214 172 163 173 187 210 216 142 225 204 201 180 171 234 227 271 285 287 294 296 295 306 312 306
231 247 228 191 230 200 180 224 239 257 228 212 311 216 171 202 220 225 218 238 195 201 156 130 208 267 259 252 206 257 256 226 209 226 219 268 251 267 280 288 294 299 305 307 307
234 224 230 204 213 215 215 209 220 206 170 236 208 207 187 202 199 195 172 195 200 129 153 176 255 104 285 279 289 277 266 246 237 244 252 258 275 266 277 283 283 294 301 298 300
237 246 261 220 185 193 219 227 227 182 228 222 208 143 202 236 239 246 209 169 175 159 177 161 151 76 266 342 320 297 257 220 190 221 216 229 241 279 286 270 279 300 300 292 294
Wind_Speed_850mb
35 39 39 37 33 29 28 25 23 20 16 11 6 5 3 4 29 11 13 20 24 22 14 7 6 13 15 12 9 5 8 4 6 10 5 7 9 3 6 12 9 5 1 2 10
38 39 41 41 36 29 29 25 24 23 18 13 12 9 5 1 8 32 25 20 18 18 9 5 11 10 11 8 8 9 7 8 2 5 5 4 2 8 4 6 10 11 17 13 13
37 39 40 43 44 33 27 26 21 23 18 12 12 11 12 3 4 24 25 20 16 15 7 7 10 10 11 10 10 4 6 7 4 4 1 4 6 5 3 6 13 12 27 19 23
33 35 37 40 43 41 31 27 19 20 15 9 9 9 9 6 2 20 22 19 17 15 4 4 5 7 9 7 4 8 5 4 5 3 3 5 7 8 17 13 24 23 19 20 23
31 32 34 37 37 39 35 30 18 17 17 11 12 10 5 9 12 19 23 20 16 13 8 12 14 9 9 6 4 6 4 7 4 14 12 10 11 10 30 13 11 11 13 17 22
27 30 34 36 35 38 38 34 16 19 20 9 6 10 4 7 11 21 22 16 15 19 26 16 14 20 15 7 7 4 5 12 4 4 6 6 8 8 10 5 12 22 22 19 28
25 27 31 34 37 37 39 32 18 19 21 11 6 6 14 9 9 19 18 15 16 16 23 26 17 5 9 6 7 5 7 8 5 5 4 9 12 14 14 7 24 36 32 26 30
23 24 28 32 36 33 38 37 25 14 22 10 5 1 6 9 13 18 13 14 13 11 14 16 14 16 10 9 10 10 8 8 4 7 5 11 17 14 16 21 47 40 40 37 28
26 25 30 32 35 31 37 40 25 11 22 9 4 0 2 7 11 17 15 9 9 9 12 11 8 9 8 8 8 14 2 3 16 5 5 4 18 34 37 41 52 54 41 32 26
23 28 31 31 32 35 40 38 24 5 22 5 5 2 4 9 8 12 15 8 5 5 5 6 9 7 8 9 5 5 5 5 10 5 8 13 37 36 41 34 47 50 43 33 29
24 25 29 35 31 37 39 30 20 5 28 7 8 3 6 13 5 8 19 6 4 7 7 10 10 4 7 6 7 7 4 8 10 9 9 13 27 45 52 34 36 33 33 32 27
23 23 27 35 36 37 31 19 16 15 14 6 5 4 6 13 6 11 17 7 8 4 7 12 2 5 7 5 5 6 4 11 12 4 7 13 41 44 23 17 13 24 30 26 22
28 28 29 36 37 23 29 25 26 23 6 5 3 3 3 8 5 14 14 7 9 7 7 8 2 7 4 2 3 6 8 5 8 12 6 17 17 11 4 5 12 21 25 22 20
29 35 28 38 24 27 23 28 27 24 8 4 3 4 4 7 4 7 9 5 7 5 5 5 4 4 4 4 7 4 5 2 6 9 4 11 10 12 8 11 10 28 28 23 26
28 28 40 35 21 21 20 24 26 10 8 4 4 4 8 4 7 4 8 4 5 3 10 9 4 5 3 6 7 6 5 1 5 7 7 8 5 16 6 13 17 28 36 27 29
24 27 25 22 16 12 14 21 17 11 11 6 4 5 8 8 7 8 4 5 5 6 2 8 4 3 4 3 2 4 8 11 7 7 5 7 7 13 8 11 9 10 37 30 34
23 22 16 15 12 11 10 12 9 8 4 9 4 6 3 7 7 10 7 4 4 8 8 9 3 3 2 3 6 11 12 7 11 8 9 5 3 22 17 13 13 18 30 32 34
19 13 11 9 12 11 8 9 7 5 9 4 2 2 1 8 3 8 5 5 1 7 6 6 12 3 2 4 9 4 11 9 10 5 10 7 13 13 11 20 29 32 34 38 38
11 11 12 13 7 6 5 5 14 12 3 6 4 9 9 3 3 8 4 6 7 10 11 7 9 1 6 5 6 5 4 5 12 3 6 5 16 23 6 13 21 38 39 47 41
11 12 20 16 9 6 5 9 6 4 3 2 6 7 5 6 6 8 3 5 5 3 4 6 6 2 5 8 12 9 5 8 6 3 11 10 12 13 14 19 13 20 51 58 45
13 10 11 9 12 9 5 10 7 9 4 5 5 5 8 3 7 5 8 5 5 6 9 8 7 9 4 7 15 4 3 9 7 7 9 7 13 17 20 15 18 24 42 39 47
11 4 6 12 5 4 4 6 4 5 7 8 4 10 10 11 7 6 11 11 12 15 9 6 7 5 17 3 7 8 12 11 8 11 7 4 20 12 16 11 21 45 46 51 59
9 10 15 24 6 8 4 4 6 7 8 7 6 8 6 11 2 10 6 2 18 13 11 12 2 6 15 8 5 6 9 8 5 4 13 8 18 6 9 16 33 40 61 64 61
6 3 10 21 10 7 6 9 9 7 7 8 5 7 6 2 6 6 6 5 13 10 10 14 7 13 13 13 6 6 10 17 14 6 12 31 53 56 49 33 38 45 60 64 48
14 11 8 6 10 12 10 3 11 8 9 11 5 14 12 8 2 10 8 5 8 12 10 7 10 5 10 13 11 28 35 24 29 34 23 50 24 49 43 35 50 69 74 46 31
11 11 12 5 3 15 21 17 25 15 14 9 9 8 16 13 20 17 12 9 10 4 9 6 6 4 9 14 11 21 39 32 41 44 36 47 52 68 78 67 57 51 42 40 34
40 46 16 14 12 10 13 22 19 17 24 28 26 9 14 38 32 20 19 5 10 16 14 11 8 4 10 9 14 19 22 18 9 8 23 30 51 24 26 17 35 45 36 35 31
Wind_Direction_850mb
47 46 40 36 35 38 34 34 33 36 33 37 22 360 305 36 45 43 24 7 7 12 21 65 78 109 116 94 79 104 67 192 181 147 169 350 19 255 292 278 274 257 183 271 286
50 46 42 36 33 31 30 32 29 23 29 38 43 41 18 344 22 34 27 10 10 8 36 91 78 125 79 69 44 75 108 191 109 115 146 293 304 305 346 275 274 249 230 320 291
48 42 39 35 32 28 26 26 30 24 30 45 40 38 23 324 39 12 15 13 12 16 29 85 94 87 77 58 30 81 139 169 167 133 237 233 258 261 261 276 215 229 274 278 291
47 39 31 28 27 25 21 18 22 27 32 32 13 354 8 69 73 5 14 15 13 17 34 81 142 79 71 71 47 111 83 103 161 182 284 250 293 265 225 255 303 285 284 280 256
38 36 30 23 20 20 16 10 18 22 12 19 28 13 33 68 48 19 14 19 25 36 110 99 84 90 102 113 122 70 2 334 303 283 268 265 260 269 267 289 284 253 258 283 257
31 26 22 19 18 16 13 10 17 12 355 352 357 18 41 76 28 23 17 25 45 67 68 85 90 103 102 75 70 23 326 307 293 298 283 286 273 313 226 212 309 285 276 267 253
21 19 16 11 9 10 6 3 355 358 1 360 13 114 66 72 37 22 18 33 56 77 78 73 81 92 104 92 62 29 40 358 13 341 345 334 289 222 211 283 304 299 276 274 281
2 2 4 4 0 1 2 353 350 336 2 13 27 49 99 38 33 22 32 49 62 90 78 76 89 74 62 101 34 42 49 14 317 347 26 64 277 269 258 296 307 294 289 279 259
348 349 348 350 355 355 354 349 341 315 -0 3 6 282 66 11 16 21 31 50 70 90 78 76 76 75 68 69 21 18 222 330 321 1 263 176 272 268 285 300 296 294 281 258 230
332 338 341 343 344 349 349 347 341 312 3 350 32 36 23 343 359 14 6 23 51 108 66 64 57 67 40 64 228 265 0 277 251 292 357 281 270 280 287 296 280 276 269 228 229
309 315 325 329 333 337 346 352 353 322 341 354 318 306 318 343 352 8 4 5 33 69 45 17 68 164 167 144 132 136 214 248 259 284 306 254 278 283 297 290 275 259 225 220 237
296 304 322 329 332 335 345 19 8 319 310 314 301 282 315 351 342 7 356 27 36 71 339 20 136 188 135 135 130 122 133 271 284 309 341 298 292 289 281 265 248 211 200 217 257
290 308 315 320 331 338 350 356 347 345 291 301 300 311 328 353 10 352 14 36 79 60 31 136 56 129 105 57 85 219 179 239 249 329 283 321 295 325 337 271 238 214 214 231 286
301 304 311 320 325 331 337 336 344 344 58 297 7 20 340 343 7 14 20 37 45 160 159 199 326 147 73 258 129 301 174 317 302 40 295 31 284 300 302 290 229 218 224 250 292
314 298 304 310 311 325 326 331 338 347 6 303 343 317 345 23 331 23 11 17 125 155 85 260 168 172 123 234 156 210 18 353 88 93 37 339 60 273 331 281 251 234 235 258 298
285 291 298 311 324 326 322 328 332 40 263 328 315 345 12 22 9 338 6 42 90 113 97 230 298 180 198 44 308 18 56 40 55 88 23 258 117 276 235 217 287 269 236 263 299
295 298 319 336 339 332 327 334 30 137 352 296 332 34 127 317 349 24 355 330 180 45 344 329 262 356 142 76 25 61 49 335 352 7 227 312 322 249 261 251 231 251 254 270 297
290 288 306 329 336 344 347 52 110 243 233 134 271 26 64 13 23 335 300 290 161 96 101 117 328 104 24 147 173 65 142 148 241 277 274 352 238 250 235 282 272 258 261 274 294
281 281 279 303 290 339 2 81 210 203 168 179 60 64 320 337 182 18 232 220 204 171 158 123 285 319 38 79 93 255 56 164 98 89 23 245 288 288 296 288 260 255 261 270 288
236 287 264 265 237 201 94 256 236 239 150 108 177 152 198 274 356 53 301 220 162 128 134 182 348 296 279 92 34 135 155 52 11 324 291 282 278 239 291 274 282 265 259 267 289
232 262 254 233 188 172 206 229 274 245 253 203 239 190 208 183 173 242 248 280 124 122 86 126 100 286 54 195 179 116 12 52 123 158 197 293 255 215 237 238 259 277 285 269 298
256 232 243 175 155 201 223 219 293 259 219 237 252 215 206 157 208 243 238 215 173 153 157 188 134 245 228 154 157 164 185 156 138 253 231 194 269 221 230 249 271 279 289 288 303
231 240 217 187 204 223 230 271 262 218 224 186 235 230 167 175 239 208 236 271 177 166 168 176 309 356 337 17 13 204 196 172 138 113 204 156 264 307 290 301 277 277 299 307 307
239 267 213 205 226 184 196 230 236 246 253 205 224 144 148 233 219 252 252 199 206 214 172 163 173 187 210 216 142 225 204 201 180 171 234 227 271 285 287 294 296 295 306 312 306
231 247 228 191 230 200 180 224 239 257 228 212 311 216 171 202 220 225 218 238 195 201 156 130 208 267 259 252 206 257 256 226 209 226 219 268 251 267 280 288 294 299 305 307 307
234 224 230 204 213 215 215 209 220 206 170 236 208 207 187 202 199 195 172 195 200 129 153 176 255 104 285 279 289 277 266 246 237 244 252 258 275 266 277 283 283 294 301 298 300
237 246 261 220 185 193 219 227 227 182 228 222 208 143 202 236 239 246 209 169 175 159 177 161 151 76 266 342 320 297 257 220 190 221 216 229 241 279 286 270 279 300 300 292 294